Muskegon, MI

10:58 PM EST on November 13, 2019 (GMT -0500)
Muskegon County

Weather History for KMKG - September, 2019

Change the Weather History Date:

Tuesday, September 3, 2019

  Actual Average Record
Temperature  
Mean Temperature 71 °F 67 °F  
Max Temperature 76 °F 76 °F 94 °F (1953)
Min Temperature 65 °F 57 °F 34 °F (1946)
Degree Days  
Heating Degree Days 0 2  
Month to date heating degree days 1 6  
Since 1 July heating degree days 5 36  
Cooling Degree Days 6 3  
Month to date cooling degree days 8 11  
Year to date cooling degree days 553 518  
Growing Degree Days 20 (Base 50)    
Moisture  
Dew Point 64 °F    
Average Humidity 71    
Maximum Humidity 84    
Minimum Humidity 57    
Precipitation  
Precipitation 0.03 in 0.11 in 0.72 in (1988)
Month to date precipitation 0.03 0.35  
Year to date precipitation 27.16 20.93  
Snow  
Snow 0.00 in 0.00 in - ()
Month to date snowfall 0.0 0.0  
Since 1 July snowfall 0.0 0.0  
Since 1 September snowfall 0.0 0.0  
Snow Depth 0.00 in    
Sea Level Pressure  
Sea Level Pressure 29.85 in    
Wind  
Wind Speed 14 mph (SSW)    
Max Wind Speed 29 mph    
Max Gust Speed 41 mph    
Visibility 10 miles    
Events Rain , Thunderstorm    
T = Trace of Precipitation, MM = Missing Value Source: NWS Daily Summary

Daily Weather History Graph

Daily Weather History Graph

Search for Another Location

Airport or City:

Astronomy

Sep. 03, 2019 Rise Set
Actual Time 7:11 AM EDT 8:16 PM EDT
Civil Twilight 6:41 AM EDT 8:45 PM EDT
Nautical Twilight 6:07 AM EDT 9:20 PM EDT
Astronomical Twilight 5:30 AM EDT 9:57 PM EDT
Moon 12:10 PM EDT (9/3) 11:04 PM EDT (9/3)
Length of Visible Light 14h 03m
Length of Day
13h 05m
Waxing Crescent, 24% of the Moon is Illuminated
Sep 3
Waxing Crescent
Sep 5
First Quarter
Sep 14
Full
Sep 21
Last Quarter
Sep 28
New

Hourly Weather History & Observations

Time (EDT) Temp. Dew Point Humidity Pressure Visibility Wind Dir Wind Speed Gust Speed Precip Events Conditions
12:55 AM 66.0 °F 59.0 °F 78% 30.03 in 10.0 mi ESE 5.8 mph - N/A   Overcast
1:55 AM 66.0 °F 59.0 °F 78% 30.01 in 10.0 mi ESE 5.8 mph - N/A   Mostly Cloudy
2:55 AM 66.9 °F 59.0 °F 76% 29.99 in 10.0 mi ESE 5.8 mph - N/A   Overcast
3:55 AM 66.0 °F 60.1 °F 81% 29.98 in 10.0 mi ESE 5.8 mph - N/A   Overcast
4:55 AM 66.9 °F 59.0 °F 76% 29.97 in 10.0 mi SSE 5.8 mph - N/A   Mostly Cloudy
5:55 AM 68.0 °F 62.1 °F 81% 29.96 in 10.0 mi South 9.2 mph - N/A   Overcast
6:55 AM 71.1 °F 64.9 °F 81% 29.92 in 10.0 mi South 15.0 mph - N/A   Overcast
7:55 AM 71.1 °F 64.9 °F 81% 29.88 in 10.0 mi SSW 18.4 mph 31.1 mph 0.01 in Rain Light Rain
8:55 AM 70.0 °F 64.9 °F 84% 29.88 in 10.0 mi South 17.3 mph 27.6 mph 0.01 in Rain Light Rain
9:55 AM 70.0 °F 64.9 °F 84% 29.84 in 10.0 mi SSW 19.6 mph 38.0 mph 0.01 in Rain Light Rain
10:55 AM 71.1 °F 64.9 °F 81% 29.84 in 10.0 mi SSW 18.4 mph 32.2 mph 0.00 in   Overcast
11:17 AM 71.1 °F 64.0 °F 78% 29.83 in 10.0 mi South 15.0 mph 26.5 mph N/A Thunderstorm Thunderstorm
11:55 AM 71.1 °F 63.0 °F 75% 29.84 in 10.0 mi SSW 20.7 mph 32.2 mph N/A Thunderstorm Thunderstorm
12:05 PM 71.1 °F 63.0 °F 75% 29.85 in 10.0 mi SSW 16.1 mph 28.8 mph N/A   Overcast
12:52 PM 71.6 °F 64.4 °F 78% 29.84 in 10.0 mi South 15.0 mph 21.9 mph N/A   Overcast
12:55 PM 73.0 °F 64.9 °F 76% 29.83 in 10.0 mi South 16.1 mph 21.9 mph N/A   Overcast
1:27 PM 75.0 °F 64.9 °F 71% 29.81 in 10.0 mi South 16.1 mph 27.6 mph N/A   Mostly Cloudy
1:55 PM 75.0 °F 64.9 °F 71% 29.78 in 10.0 mi South 23.0 mph 33.4 mph N/A   Mostly Cloudy
2:55 PM 73.0 °F 64.0 °F 73% 29.79 in 10.0 mi SSW 17.3 mph 31.1 mph N/A   Overcast
3:21 PM 72.0 °F 64.0 °F 76% 29.81 in 10.0 mi SSW 16.1 mph 25.3 mph N/A   Overcast
3:55 PM 73.0 °F 64.9 °F 76% 29.80 in 10.0 mi SSW 13.8 mph 26.5 mph N/A   Overcast
4:55 PM 73.9 °F 66.0 °F 76% 29.76 in 10.0 mi SW 21.9 mph 39.1 mph N/A   Overcast
5:55 PM 73.9 °F 66.9 °F 79% 29.74 in 10.0 mi SW 16.1 mph 26.5 mph N/A   Overcast
6:55 PM 73.0 °F 66.9 °F 81% 29.74 in 10.0 mi SW 18.4 mph 26.5 mph N/A   Overcast
7:18 PM 73.9 °F 68.0 °F 82% 29.75 in 10.0 mi SW 17.3 mph 26.5 mph N/A   Mostly Cloudy
7:55 PM 73.0 °F 68.0 °F 84% 29.75 in 8.0 mi SW 15.0 mph - N/A   Mostly Cloudy
8:55 PM 73.0 °F 68.0 °F 84% 29.76 in 9.0 mi WSW 10.4 mph - N/A   Mostly Cloudy
9:15 PM 73.0 °F 68.0 °F 84% 29.77 in 10.0 mi West 9.2 mph 20.7 mph N/A   Mostly Cloudy
9:55 PM 72.0 °F 66.9 °F 84% 29.78 in 10.0 mi West 8.1 mph - N/A   Mostly Cloudy
10:55 PM 72.0 °F 61.0 °F 68% 29.79 in 10.0 mi WNW 9.2 mph - N/A   Scattered Clouds
11:55 PM 73.0 °F 57.0 °F 57% 29.81 in 10.0 mi NW 12.7 mph 26.5 mph N/A   Clear